WX4TAZ Weather Reports


Display with metric or nautical units.
time (UTC)temp
F
wind
direction
speed
MPH
gust
MPH
rain 1hr
in
rain 24hr
in
rain mn
in
humidity
%
barometer
mb
20260502152104 53 261 6.0 10.0 0.00 0.00 0.00 29 1020.5
20260502122104 38 0 0.0 0.0 0.00 0.00 0.00 52 1020.4
20260502121603 38 0 0.0 0.0 0.00 0.00 0.00 52 1020.5
20260502121104 38 0 0.0 0.0 0.00 0.00 0.00 52 1020.4
20260502113104 35 0 0.0 0.0 0.00 0.00 0.00 54 1020.1
20260502111104 35 0 0.0 0.0 0.00 0.00 0.00 54 1020.1
20260502103104 35 0 0.0 0.0 0.00 0.00 0.00 55 1020.0
20260502101603 36 0 0.0 0.0 0.00 0.00 0.00 53 1019.9
20260502080103 39 0 0.0 0.0 0.00 0.00 0.00 46 1019.7
20260502070602 38 0 0.0 0.0 0.00 0.00 0.00 47 1019.8
20260502065603 39 0 0.0 0.0 0.00 0.00 0.00 44 1019.9
20260502060603 40 0 0.0 0.0 0.00 0.00 0.00 45 1019.7
20260502053602 42 0 0.0 0.0 0.00 0.00 0.00 40 1019.5
20260502052602 42 0 0.0 0.0 0.00 0.00 0.00 40 1019.5
20260502045103 42 0 0.0 0.0 0.00 0.00 0.00 38 1019.3
20260502035103 43 0 0.0 0.0 0.00 0.00 0.00 38 1019.2
20260502034602 43 0 0.0 0.0 0.00 0.00 0.00 37 1019.2
20260502030104 46 18 1.0 4.0 0.00 0.00 0.00 33 1018.9
20260502024603 46 1 1.0 2.0 0.00 0.00 0.00 33 1018.8
20260502023602 46 357 1.0 2.0 0.00 0.00 0.00 33 1018.7
20260502022104 47 340 2.0 3.0 0.00 0.00 0.00 32 1018.6
20260502020603 48 345 2.0 3.0 0.00 0.00 0.00 31 1018.4
20260502011103 51 345 6.0 12.0 0.00 0.00 0.00 26 1017.9
20260502010603 51 349 7.0 12.0 0.00 0.00 0.00 26 1017.9
20260502005602 52 351 7.0 11.0 0.00 0.00 0.00 25 1017.8
20260502005103 52 354 7.0 13.0 0.00 0.00 0.00 24 1017.7
20260502003103 53 354 9.0 17.0 0.00 0.00 0.00 23 1017.4
20260502002603 53 348 9.0 17.0 0.00 0.00 0.00 23 1017.4
20260502002103 54 346 8.0 13.0 0.00 0.00 0.00 23 1017.4
20260502001103 54 348 10.0 17.0 0.00 0.00 0.00 23 1017.4
20260502000104 54 353 10.0 19.0 0.00 0.00 0.00 23 1017.3
20260501235103 54 335 11.0 21.0 0.00 0.00 0.00 22 1017.3
20260501234603 55 338 10.0 16.0 0.00 0.00 0.00 23 1017.2
20260501234103 55 341 10.0 16.0 0.00 0.00 0.00 23 1017.3
20260501233104 55 337 9.0 16.0 0.00 0.00 0.00 23 1017.2
20260501231103 56 332 9.0 17.0 0.00 0.00 0.00 22 1017.2
20260501230603 56 324 10.0 17.0 0.00 0.00 0.00 23 1017.1
20260501225104 55 332 10.0 18.0 0.00 0.00 0.00 22 1017.1
20260501224602 55 327 10.0 18.0 0.00 0.00 0.00 22 1017.2
20260501223104 55 350 12.0 20.0 0.00 0.00 0.00 23 1017.2
20260501220104 56 356 10.0 17.0 0.00 0.00 0.00 22 1017.1
20260501215103 56 338 12.0 19.0 0.00 0.00 0.00 23 1017.1
20260501214603 55 321 12.0 19.0 0.00 0.00 0.00 21 1017.1
20260501213104 55 327 11.0 18.0 0.00 0.00 0.00 22 1017.1
20260501210103 55 352 10.0 21.0 0.00 0.00 0.00 21 1017.2
20260501204104 56 330 11.0 20.0 0.00 0.00 0.00 21 1017.4
20260501202603 56 342 11.0 21.0 0.00 0.00 0.00 21 1017.4
20260501201103 56 323 12.0 20.0 0.00 0.00 0.00 24 1017.4
20260501195602 56 320 12.0 21.0 0.00 0.00 0.00 25 1017.5
20260501195104 56 309 12.0 22.0 0.00 0.00 0.00 24 1017.5
20260501193603 56 329 10.0 20.0 0.00 0.00 0.00 23 1017.4
20260501193103 55 333 10.0 19.0 0.00 0.00 0.00 25 1017.4
20260501191103 55 310 10.0 18.0 0.00 0.00 0.00 27 1017.4
20260501184104 54 333 12.0 20.0 0.00 0.00 0.00 29 1017.4
20260501182603 56 321 11.0 18.0 0.00 0.00 0.00 29 1017.3
20260501180602 54 327 11.0 18.0 0.00 0.00 0.00 30 1017.4
20260501175103 54 339 12.0 21.0 0.00 0.00 0.00 33 1017.6
20260501174103 53 325 10.0 17.0 0.00 0.00 0.00 35 1017.6
20260501173103 53 330 10.0 18.0 0.00 0.00 0.00 36 1017.6
20260501172103 53 326 11.0 17.0 0.00 0.00 0.00 38 1017.7
20260501170603 53 329 10.0 20.0 0.00 0.00 0.00 41 1017.7
20260501170103 53 333 11.0 20.0 0.00 0.00 0.00 42 1017.8
20260501163603 52 330 10.0 17.0 0.00 0.00 0.00 44 1017.8
20260501162603 52 323 12.0 18.0 0.00 0.00 0.00 44 1017.7
20260501162104 51 310 13.0 18.0 0.00 0.00 0.00 46 1017.7
20260501155103 50 318 12.0 19.0 0.00 0.00 0.00 49 1017.5
20260501153603 49 312 12.0 19.0 0.00 0.00 0.00 51 1017.5